Location: Paderno d�Adda
(45.6667°N, 9.4333°E)
Time: 01:25:30
(UTC+00:00)

Cosmos 2278 Rocket - Pass Details

Date: 19 September 2020
Orbit: 841 x 845 km, 71.0° (Epoch: 26 October)

Event Time Altitude Azimuth Distance (km) Brightness Sun altitude
Exits shadow 21:07:42 17° 24° (NNE) 2,036 4.4 -35.4°
Drops below altitude 10° 21:08:52 10° 25° (NNE) 2,469 4.8 -35.5°
Sets 21:11:19 0° 26° (NNE) 3,408 5.6 -35.8°
